{"data":{"norad_id":44884,"intl_designator":"2019-093F","name":"WEILAI 1R","alt_names":[],"object_type":"PAYLOAD","status":"ACTIVE","operator":null,"country":"PRC","launch_date":"2019-12-20","launch_site_code":"TAISC","launch_vehicle":null,"mission":null,"orbit_class":"UNKNOWN","rcs_meters":null,"size_class":null,"mass_kg":null,"dimensions":null,"purposes":[],"wikipedia_slug":null,"has_3d_model":false,"image_url":null,"decayed_at":null,"tle_current":{"epoch":"2026-05-25T04:21:53.852256Z","epoch_age_seconds":59306,"freshness":"FRESH","line1":"1 44884U 19093F   26145.18187329  .00004721  00000+0  37931-3 0  9996","line2":"2 44884  97.7829 235.0403 0016770 106.0920 254.2151 15.00407917348973","mean_motion":15.00407917,"eccentricity":0.001677,"inclination_deg":97.7829,"raan_deg":235.0403,"arg_perigee_deg":106.092,"mean_anomaly_deg":254.2151,"bstar":0.00037931,"rev_number":34897,"period_min":95.973900409644,"perigee_km":553.99281120075,"apogee_km":577.28223094443,"semimajor_km":6943.7745210726,"source":"CELESTRAK","updated_at":"2026-05-25T13:37:56.039616Z"}}}